| DS18B20 | SHTC3 | ||||||
|---|---|---|---|---|---|---|---|
| ID | Date d/m/Y & Time | data1 สูง | data2 ต่ำ | data3 นอก | temp pcb | hum pcb | Time |
| 9586 | 07/04/2026 08:36:59 | 28.8  | 28.2  | 30.5  | 28.6  | 69.2  | 08:36 |
| 9585 | 07/04/2026 08:32:16 | 28.7  | 28.2  | 30.0  | 28.4  | 69.4  | 08:32 |
| 9584 | 07/04/2026 08:27:34 | 28.6  | 28.1  | 29.7  | 28.3  | 69.7  | 08:27 |
| 9583 | 07/04/2026 08:22:52 | 28.4  | 28.1  | 29.6  | 28.1  | 69.7  | 08:22 |
| 9582 | 07/04/2026 08:18:09 | 28.3  | 28.0  | 29.3  | 28.1  | 69.8  | 08:18 |
| 9581 | 07/04/2026 08:13:28 | 28.2  | 27.9  | 29.6  | 28.0  | 69.9  | 08:13 |
| 9580 | 07/04/2026 08:08:46 | 28.1  | 27.9  | 29.2  | 28.1  | 70.1  | 08:08 |
| 9579 | 07/04/2026 08:04:05 | 27.9  | 27.9  | 29.1  | 27.9  | 69.9  | 08:04 |
| 9578 | 07/04/2026 07:59:23 | 27.8  | 27.8  | 28.9  | 27.9  | 70.1  | 07:59 |
| 9577 | 07/04/2026 07:54:41 | 27.8  | 27.8  | 28.7  | 27.7  | 70.2  | 07:54 |
| 9576 | 07/04/2026 07:50:00 | 27.7  | 27.8  | 28.4  | 27.6  | 70.3  | 07:50 |
| 9575 | 07/04/2026 07:45:18 | 27.6  | 27.7  | 27.9  | 27.6  | 70.5  | 07:45 |
| 9574 | 07/04/2026 07:40:37 | 27.6  | 27.7  | 27.7  | 27.5  | 70.5  | 07:40 |
| 9573 | 07/04/2026 07:35:53 | 27.6  | 27.7  | 27.5  | 27.6  | 70.6  | 07:35 |
| 9572 | 07/04/2026 07:31:13 | 27.6  | 27.6  | 27.2  | 27.5  | 70.6  | 07:31 |
| 9571 | 07/04/2026 07:26:29 | 27.6  | 27.6  | 27.0  | 27.4  | 70.6  | 07:26 |
| 9570 | 07/04/2026 07:21:48 | 27.6  | 27.6  | 26.8  | 27.5  | 70.7  | 07:21 |
| 9569 | 07/04/2026 07:17:05 | 27.5  | 27.6  | 26.6  | 27.5  | 70.8  | 07:17 |
| 9568 | 07/04/2026 07:12:24 | 27.5  | 27.6  | 26.3  | 27.6  | 70.9  | 07:12 |
| 9567 | 07/04/2026 07:07:42 | 27.5  | 27.6  | 26.2  | 27.6  | 70.9  | 07:07 |
| 9566 | 07/04/2026 07:03:01 | 27.5  | 27.6  | 26.0  | 27.4  | 70.9  | 07:03 |
| 9565 | 07/04/2026 06:58:19 | 27.5  | 27.7  | 26.0  | 27.4  | 71.0  | 06:58 |
| 9564 | 07/04/2026 06:53:37 | 27.6  | 27.7  | 25.9  | 27.5  | 71.0  | 06:53 |
| 9563 | 07/04/2026 06:48:56 | 27.6  | 27.7  | 26.0  | 27.5  | 71.0  | 06:48 |